STARLINK-1047, 44752

Orbit data source: Space-Track

STARLINK-1047, 44752 is a payload satellite owned by SpaceX/Seattle (US) in LEO that was launched on Mon, 11 Nov 2019 UTC via an FALCON 9 launch vehicle from the Air Force Eastern Test Range (AFETR). Payload-class satellites include a variety of spacecraft equipped with specific instruments for various scientific and technological missions. These include communications satellites like Starlink; space stations such as the ISS; scientific satellites like the Hubble; Earth observation satellites from companies like Planet Labs, Umbra, and HawkEye 360; GPS; miniature CubeSats for education and research; and military/defense satellites.

Loading next visibility...
Identifier
44752, 2019-074AR
Orbit
LEO
Country
Flag of USUS
Related business
Manufacturer
SpaceX/Seattle
Mission
Partially operational Commercial Communications
Bus & Motor
STARLINK, Unknown motor
Mass
260 kg wet, ~248 kg dry
Launch date (UTC)
2019-11-11 (6 years ago)
Launch vehicle
FALCON 9
Launch site
Air Force Eastern Test Range (AFETR)
Object type
Payload
Rocket body
Debris
Shape & HBR
Box + 1 Pan, 10.1 m
Radar Cross Section
13.562 m², Large (>1 m²)

Expand to show TLE details & history
Last TLE update: 8 hours ago

TLE from 8 hours ago
0 STARLINK-1047
1 44752U 19074AR  26119.14705584  .00009044  00000-0  28466-3 0  9992
2 44752  53.0702 270.0795 0003189  47.2507 312.8762 15.33698407357085
Epoch: 2026-04-29T03:31Z
TLE epoch observation values (Epoch: 2026-04-29T03:31:45.624Z)
Latitude
-0.00003°
Longitude
0.02718°
Altitude
464.196 km
Speed
7.636 km/s
True Right ascension
18h 00m 19s
True Declination
0° 00' 00"
Sunlit
Object was in full shadow at epoch
Visualization orbit readout
Latitude
Unknown
Longitude
Unknown
Altitude
Unknown
Speed
Unknown
Apparent Right ascension
Unknown
Apparent Declination
Unknown
Sunlit
N/A
Visualization observer readout
Local Sidereal Time
19:24:07
Azimuth
Unknown
Elevation
Unknown
Doppler factor
Unknown
Orbital elements
Apogee altitude
467.243 km
Perigee altitude
462.878 km
Semi-major axis
6,843.198 km
Eccentricity
0.00032
Inclination
53.0702°
RAAN
270.0795°
Arg. of periapsis
47.2507°
True anomaly
312.84941°
Mean anomaly
312.8762°
Eccentric anomaly
312.86281°
Mean motion
3.83402 °/min
Orbital period
93.9 mins
BSTAR
0.00028466
Loading maneuver chart data...
Computing Atmospheric mass density...
Loading historical data...
Loading historical data...
Loading historical data...
Loading historical data...
Loading historical data...
Loading historical data...
Loading historical data...

Documentation

Showing up to 5 results
|